Theta_e
290 287 285 289 288 286 283 282 281 287 290 286 287 289 291 294 294 294 295 295 296 297 301 301 299 295 295 296 296 295 293 295 295 295 292 292 292 292 291 292 291 290 290 289
287 284 290 289 288 288 286 283 284 288 291 287 287 287 290 292 294 295 296 296 297 296 297 300 298 294 294 296 296 296 295 294 294 295 295 295 295 293 293 291 290 290 289 288
286 288 291 289 286 286 283 283 285 284 287 286 284 284 286 290 293 295 296 297 298 296 297 299 297 294 292 293 294 295 295 295 294 295 294 287 287 286 286 287 288 289 288 288
286 290 289 286 286 286 284 287 287 285 282 279 285 280 284 288 290 290 293 293 293 293 294 295 296 294 292 294 295 295 295 295 294 294 293 292 292 290 290 290 290 289 288 287
286 286 285 285 287 288 286 287 286 283 281 278 279 278 283 285 286 289 291 292 293 293 293 293 294 294 295 293 293 295 295 294 294 293 294 292 293 293 289 290 289 288 287 287
287 288 288 288 288 289 287 285 284 281 280 276 281 281 282 283 286 287 289 291 292 293 293 293 292 292 292 293 292 292 293 293 292 292 293 292 292 291 287 287 287 287 286 286
282 285 288 288 285 285 285 282 277 275 274 278 280 279 287 287 288 289 292 293 293 292 292 291 291 292 292 290 291 290 290 290 291 291 292 292 292 290 288 288 288 286 286 285
280 283 285 287 288 286 283 284 277 272 274 282 278 278 286 290 291 291 290 290 291 290 290 289 290 290 290 290 289 288 288 289 289 289 290 290 291 291 290 288 288 287 287 287
281 281 285 286 286 288 282 281 286 281 273 272 281 285 291 291 289 288 288 289 289 290 291 291 291 290 290 291 289 288 288 288 287 288 289 289 290 290 289 287 287 287 287 286
287 284 287 285 286 285 285 285 279 278 275 274 279 282 284 288 289 289 289 290 290 291 293 296 291 290 290 290 289 287 287 287 287 287 289 289 289 289 288 286 286 286 286 285
289 288 287 286 283 283 283 283 283 283 281 277 277 281 292 291 289 289 289 290 291 291 292 292 290 290 290 289 288 288 287 286 286 286 288 288 287 287 286 285 286 286 285 284
290 289 284 286 290 289 289 288 288 282 280 281 281 282 294 293 293 292 293 295 293 291 291 291 291 290 291 291 291 288 287 286 286 286 286 287 287 285 286 286 286 287 285 285
292 286 281 282 284 284 284 285 287 287 286 281 278 281 292 293 294 294 293 293 290 288 288 288 289 288 288 288 289 290 289 287 287 285 284 284 284 285 287 287 286 285 285 284
295 287 284 280 283 286 284 286 285 285 280 281 282 284 288 290 291 286 286 288 285 285 286 286 287 287 287 287 287 287 288 289 289 286 284 284 283 284 286 286 284 284 285 284
287 281 285 284 283 283 282 281 281 280 282 278 281 281 286 279 280 281 284 283 282 282 283 284 285 286 285 286 287 286 287 286 287 287 287 287 287 285 285 285 285 284 284 284
283 275 279 275 279 279 277 278 278 279 279 279 281 282 280 280 280 282 281 280 280 281 282 282 284 284 283 284 286 285 285 284 284 284 284 287 286 285 285 286 285 283 283 283
278 273 268 270 276 273 269 273 275 276 278 277 275 275 280 277 278 280 280 280 279 280 281 282 284 283 284 284 285 285 284 283 283 282 283 284 286 286 285 285 284 282 282 282
275 271 270 265 262 258 273 279 277 275 275 275 275 277 278 277 279 280 283 280 279 280 281 282 282 283 284 284 285 285 284 283 282 281 282 282 282 284 283 282 282 281 282 281
278 275 262 261 259 270 275 274 272 270 270 273 273 277 279 279 279 277 281 281 281 280 281 282 282 282 282 282 283 282 282 283 282 282 281 279 279 281 279 280 279 279 280 280
275 277 273 266 264 258 270 274 277 276 265 273 274 273 274 276 268 272 279 281 280 281 280 280 281 280 280 280 281 280 281 282 282 282 280 278 277 278 278 279 277 279 280 279
259 256 258 256 256 263 274 275 275 261 266 273 276 274 276 271 272 277 278 277 278 279 279 280 279 278 278 279 279 278 279 278 279 281 280 279 277 277 279 278 278 278 278 276
264 257 256 255 252 258 275 273 267 273 276 277 276 276 275 276 277 277 276 275 275 275 275 276 275 276 277 278 276 276 275 276 276 277 279 279 278 277 277 277 277 277 277 276
265 267 262 264 264 274 274 274 278 278 276 277 276 278 276 276 275 275 274 274 275 274 275 274 272 273 274 274 275 273 273 274 275 273 274 277 279 277 276 276 275 275 275 274
272 274 270 270 274 275 277 279 278 278 278 278 278 276 275 273 274 273 273 274 273 273 272 273 271 270 270 271 272 271 271 271 270 268 270 273 276 277 276 275 275 274 274 274
273 273 271 270 274 276 277 278 278 278 277 275 275 275 274 272 272 272 272 271 271 271 271 271 270 269 268 269 267 267 268 267 266 267 268 270 271 275 276 275 275 274 275 276
276 273 271 270 276 275 276 279 277 275 274 273 272 271 272 272 271 271 269 270 269 269 269 268 268 267 266 265 265 265 264 263 263 263 265 267 269 271 275 274 273 279 279 279
Wind_Speed
1 4 8 19 12 1 3 5 6 14 12 3 11 18 18 19 19 22 20 19 20 21 22 15 10 9 10 10 13 16 17 20 15 13 13 10 15 11 10 10 14 14 11 11
3 8 17 4 4 8 8 5 15 13 19 6 14 18 17 20 23 25 24 25 21 12 13 17 9 8 10 12 15 14 18 17 17 14 13 9 12 11 11 10 11 13 14 13
10 7 6 5 4 9 5 8 16 11 9 6 9 12 7 12 17 22 23 23 18 13 17 19 10 7 8 11 14 18 19 19 18 18 11 3 5 4 4 7 9 12 15 15
7 5 8 3 9 8 12 12 14 8 3 5 6 18 8 10 14 9 18 11 11 11 10 10 12 9 9 15 12 15 14 17 17 18 15 19 15 12 12 12 11 12 17 17
9 5 4 5 11 7 12 4 5 3 5 4 1 5 3 3 9 13 10 10 12 11 8 9 10 9 11 9 11 13 13 14 15 18 19 16 16 11 5 8 13 12 12 14
7 2 7 9 6 9 1 2 4 4 2 7 14 11 5 5 8 5 4 7 10 9 10 10 7 7 8 9 7 7 10 14 15 17 18 20 20 11 8 11 12 11 9 9
1 5 4 4 3 2 3 5 5 5 1 12 3 7 14 6 8 4 10 11 10 8 9 9 11 15 12 8 8 5 8 10 12 16 19 19 18 14 16 14 12 14 11 10
3 17 9 6 9 9 8 10 8 7 8 16 1 15 9 9 7 7 6 5 8 8 7 7 8 8 9 10 7 6 6 7 9 12 12 9 14 10 11 13 11 11 12 14
5 8 3 5 3 6 5 7 5 3 1 2 11 21 23 16 8 7 7 6 9 9 9 10 10 7 9 9 7 8 8 8 8 9 10 12 14 15 14 11 10 11 11 11
3 13 8 2 2 0 6 1 1 2 4 10 11 15 28 14 9 7 8 9 9 10 12 14 9 9 7 7 8 7 9 9 9 9 11 11 12 12 10 9 14 13 11 12
6 7 13 2 7 9 3 3 3 2 5 13 19 16 22 18 6 9 6 7 9 10 12 10 9 9 9 6 6 8 7 6 7 9 10 10 11 11 9 11 12 13 12 14
3 5 10 23 8 7 7 14 21 18 13 13 19 20 23 22 17 10 18 21 10 9 13 16 17 14 15 15 15 8 7 6 6 6 7 10 10 9 11 13 14 13 15 14
2 5 3 7 7 3 6 5 14 18 18 24 22 15 4 16 22 19 18 20 16 15 15 15 18 17 17 16 17 16 13 9 6 7 8 7 7 9 15 15 13 12 13 13
0 7 15 18 20 18 10 10 10 10 9 11 14 18 14 20 21 22 22 19 16 17 17 16 16 17 17 16 16 16 16 15 14 8 7 9 9 12 13 9 8 12 14 15
3 8 10 12 13 15 19 18 21 24 22 22 24 27 20 10 14 17 15 20 21 20 20 20 17 16 17 18 16 16 14 16 17 16 13 13 11 9 9 10 12 11 13 13
2 5 8 15 22 14 18 23 26 24 27 21 21 21 5 8 12 12 13 18 21 23 23 22 20 20 19 18 17 16 17 16 14 14 14 16 11 10 13 13 12 13 14 13
4 3 0 16 22 14 14 17 18 15 12 6 7 7 6 10 12 9 10 12 17 17 18 19 19 18 18 19 17 17 16 15 13 14 14 14 14 14 12 11 12 14 15 13
9 6 4 9 5 6 9 6 7 5 6 7 4 7 6 11 10 11 6 9 12 15 15 15 15 16 17 17 18 17 16 14 13 13 15 15 14 15 9 8 12 11 11 14
14 9 4 3 8 12 14 6 4 4 5 5 5 6 6 7 9 8 5 8 14 13 14 14 12 15 16 16 17 18 20 16 13 13 16 15 15 13 7 8 8 7 9 9
3 9 6 1 4 5 3 4 8 2 6 7 4 5 5 3 6 13 11 10 10 11 10 13 13 14 15 15 14 18 18 16 14 14 16 15 11 12 6 6 5 3 5 7
4 4 5 3 5 9 4 7 3 4 7 6 2 7 7 4 7 12 16 11 9 9 11 11 11 11 13 13 13 16 15 16 17 17 14 13 10 9 11 5 3 3 3 4
5 4 4 3 3 11 5 5 2 10 7 11 9 10 9 9 10 12 15 13 12 12 11 10 11 12 12 11 12 15 14 15 16 17 18 13 11 6 6 7 4 4 4 7
7 8 6 11 10 6 5 10 14 8 10 15 7 13 7 10 12 14 12 15 14 14 13 11 9 12 12 11 11 13 15 15 15 16 18 17 12 8 6 7 6 4 4 5
7 8 11 13 14 18 19 19 11 11 17 16 10 7 6 11 13 12 13 15 15 15 15 13 14 16 17 11 11 13 14 13 15 17 17 16 16 11 8 6 6 6 7 7
9 4 5 11 17 16 18 17 18 18 8 4 5 7 8 8 15 13 13 15 16 17 16 14 15 16 20 16 15 10 12 12 14 16 16 15 12 14 10 9 8 9 9 11
5 8 10 17 21 16 19 18 4 3 5 5 6 10 10 11 14 13 17 17 16 17 18 17 18 19 19 18 18 15 10 9 15 17 14 12 11 11 10 8 8 20 18 19
Wind_Direction
196 130 201 233 206 181 247 244 242 262 269 278 245 272 271 274 283 273 265 261 259 254 268 278 252 208 203 203 204 204 190 194 180 184 181 190 203 194 196 193 182 177 179 177
67 216 228 75 165 231 245 284 267 281 271 188 273 270 267 262 256 261 268 271 262 271 271 267 265 212 202 215 211 209 209 195 193 190 200 202 192 206 200 188 185 179 173 176
200 217 213 209 209 244 200 224 258 255 317 252 302 275 230 263 248 261 264 258 276 259 275 285 281 238 215 222 211 209 205 201 198 196 178 109 81 61 139 189 181 184 181 178
237 252 204 136 232 195 265 230 253 260 359 249 35 293 213 230 261 241 259 262 256 245 252 260 297 281 221 228 218 214 211 203 196 186 185 194 195 189 203 194 192 193 187 183
234 180 162 176 224 144 230 198 233 187 204 332 291 269 162 154 255 260 267 272 273 275 270 298 269 264 270 254 228 212 200 201 195 194 193 192 205 212 171 172 181 185 190 190
243 323 178 214 220 195 50 76 58 52 115 267 200 193 55 173 213 256 240 277 278 307 334 318 301 289 288 274 244 224 207 197 188 190 200 200 204 189 165 168 175 180 181 186
233 222 245 177 234 118 156 51 321 326 349 253 167 231 228 207 217 243 264 275 283 323 327 330 338 331 342 305 304 231 208 214 196 197 200 201 205 189 186 180 184 173 177 187
237 281 187 186 192 190 177 163 165 243 275 286 33 256 268 225 254 254 256 296 304 320 312 289 289 327 315 326 300 237 225 240 192 193 204 209 208 207 200 185 179 185 190 191
218 256 275 225 147 151 172 179 206 246 209 293 255 279 281 230 266 321 312 340 304 298 296 319 314 317 325 314 290 235 210 204 201 196 200 206 205 203 197 185 185 182 184 183
317 306 209 230 55 138 181 200 81 313 235 252 271 277 266 302 303 299 314 315 327 324 317 308 298 307 289 289 288 253 228 199 190 198 203 206 204 209 204 182 186 185 181 174
163 214 275 30 191 189 175 219 210 282 214 256 262 255 278 293 299 314 308 266 274 287 287 286 296 317 330 317 288 294 293 246 206 199 206 210 209 203 189 189 189 185 178 175
214 225 256 271 242 219 217 248 249 245 253 237 250 252 280 292 306 305 301 307 311 275 352 359 3 4 7 358 357 330 312 276 271 274 242 220 220 202 198 204 197 191 192 184
146 228 268 297 266 60 217 242 246 252 260 254 261 267 267 297 309 312 344 7 34 22 12 11 5 3 358 0 359 357 351 313 280 238 222 226 240 233 224 216 198 183 184 179
190 249 258 265 273 291 291 316 328 298 277 290 274 292 319 306 325 344 354 14 26 14 2 3 3 356 351 349 351 347 341 349 341 291 246 229 214 218 220 224 200 193 193 188
60 272 277 290 296 291 299 287 284 273 275 267 285 285 300 19 356 349 356 2 7 9 359 353 354 348 343 339 342 340 340 340 338 334 308 272 250 229 217 203 202 202 194 197
334 273 336 291 283 286 292 283 270 273 268 271 278 276 6 21 2 1 24 7 356 349 347 342 342 343 339 336 336 331 335 338 331 324 318 305 276 240 227 224 203 198 194 192
238 222 128 274 288 319 282 252 263 274 338 4 300 359 360 358 356 346 333 358 342 337 337 334 335 333 329 332 330 324 329 326 330 330 330 323 299 271 241 223 207 200 200 190
238 229 228 263 32 256 254 91 78 106 106 76 39 341 350 309 310 290 275 331 327 323 323 320 323 321 323 325 328 323 322 321 332 331 339 330 319 292 267 227 220 211 200 195
218 229 255 211 205 274 302 9 29 80 255 201 218 251 259 290 294 310 23 340 310 316 318 315 312 316 315 324 326 325 319 322 330 335 338 334 327 309 270 243 226 210 195 192
53 213 206 339 252 239 217 225 246 166 261 215 214 252 249 281 317 302 331 317 291 285 281 295 306 309 313 318 325 318 316 320 319 332 331 323 324 311 282 270 258 235 190 207
13 5 171 244 247 282 208 236 272 87 263 301 258 222 239 220 212 278 304 299 296 288 296 290 292 293 299 303 312 309 313 318 324 317 312 316 314 312 297 275 244 249 175 120
159 150 227 74 21 284 209 342 145 279 280 288 268 240 231 249 267 278 292 294 299 296 296 289 289 286 288 294 302 297 303 308 310 313 312 306 303 299 292 278 249 219 182 171
261 192 203 185 220 244 236 258 276 274 261 284 253 268 223 260 267 284 281 290 292 296 299 301 287 289 290 295 292 292 299 303 309 317 312 310 304 279 260 254 242 197 188 189
244 223 242 263 260 258 263 274 276 265 276 273 266 255 235 259 278 283 288 288 293 295 293 298 298 295 294 296 294 291 301 311 308 305 306 304 305 287 256 239 239 220 195 197
247 168 223 252 266 269 268 264 264 270 271 280 274 251 269 282 281 287 284 285 289 290 293 295 289 290 291 301 298 294 302 304 299 296 295 296 294 286 268 237 230 227 221 201
186 221 244 260 264 266 273 277 19 288 307 323 316 306 294 285 290 296 285 286 289 290 292 292 290 289 291 297 295 298 297 295 295 295 294 288 291 288 275 252 246 242 232 223